Home > Weather > Limerick > Past weeks

Flag for Ireland Weather for the Past 2 Weeks in Limerick, Ireland

Now
45 °F

Broken clouds.


Feels Like: 37 °F
Forecast: 36 / 53 °F
Wind: 17 mph from Northwest

Location: Shannon Airport

Current Time: Apr 29, 2016 at 1:18:09 PM

Latest Report: Apr 29, 2016 at 1:00 PM


Visibility: N/A

Pressure: 29.95 "Hg

Humidity: 71%

Dew Point: 36 °F

Location of LimerickLocation

Historic Weather in Limerick — Graph

°F

Limerick Temperature Yesterday

Maximum temperature yesterday: 50 °F (at 10:00 AM)
Minimum temperature yesterday: 37 °F (at 1:00 AM)
Average temperature yesterday: 44 °F

High & Low Weather Summary for the Past Weeks

 TemperatureHumidityPressure
High63 °F (Apr 20, 3:00 PM)100% (Apr 15, 4:00 AM)30.39 "Hg (Apr 15, 4:00 AM)
Low32 °F (Apr 17, 3:30 AM)33% (Apr 21, 7:30 PM)29.68 "Hg (Apr 15, 1:00 PM)
Average47 °F68%30.10 "Hg
* Reported Apr 14 12:00 Noon — Apr 29 12:00 Noon, Limerick, Weather by CustomWeather, © 2016

Note: Actual official high and low records may vary slightly from our data, if they occured in-between our weather recording intervals... More about our weather records

Advertising

Limerick Weather History for the Previous 24 Hours

Scroll right to see more
 ConditionsComfort  
Time TempWeatherWind HumidityBarometerVisibility
12:00 PM
Fri, Apr 29
46 °FPassing clouds.14 mph66%29.92 "HgN/A
11:30 AM45 °FPartly sunny.15 mph71%29.92 "HgN/A
11:00 AM45 °FPartly sunny.17 mph76%29.89 "HgN/A
10:30 AM46 °FSprinkles. Partly sunny.16 mph66%29.89 "HgN/A
10:00 AM46 °FScattered clouds.13 mph66%29.89 "HgN/A
9:30 AM46 °FPartly sunny.13 mph66%29.89 "HgN/A
9:00 AM45 °FPartly sunny.13 mph71%29.89 "HgN/A
8:30 AM43 °FScattered clouds.13 mph76%29.89 "HgN/A
8:00 AM41 °FPassing clouds.12 mph81%29.86 "HgN/A
7:30 AM39 °FPassing clouds.14 mph81%29.86 "HgN/A
7:00 AM37 °FPassing clouds.12 mph87%29.86 "HgN/A
6:30 AM39 °FSprinkles. Passing clouds.18 mph81%29.86 "HgN/A
6:00 AM37 °FPassing clouds.9 mph87%29.86 "HgN/A
5:30 AM37 °FPassing clouds.7 mph87%29.86 "HgN/A
5:00 AM39 °FPassing clouds.6 mph81%29.86 "HgN/A
4:30 AM41 °FPassing clouds.10 mph76%29.86 "HgN/A
3:30 AM39 °FPassing clouds.2 mph81%29.86 "HgN/A
3:00 AM39 °FPassing clouds.13 mph81%29.86 "HgN/A
2:00 AM39 °FPassing clouds.18 mph81%29.86 "HgN/A
1:30 AM39 °FPassing clouds.9 mph81%29.86 "HgN/A
1:00 AM39 °FSprinkles. Passing clouds.13 mph87%29.89 "HgN/A
12:30 AM41 °FPassing clouds.15 mph81%29.86 "HgN/A
12:00 AM41 °FPassing clouds.17 mph81%29.89 "HgN/A
11:30 PM
Thu, Apr 28
39 °FPassing clouds.16 mph87%29.89 "HgN/A
11:00 PM39 °FSprinkles. Passing clouds.22 mph87%29.89 "HgN/A
10:30 PM43 °FPassing clouds.18 mph61%29.89 "HgN/A
10:00 PM43 °FPassing clouds.17 mph61%29.89 "HgN/A
9:30 PM43 °FPartly sunny.16 mph57%29.89 "HgN/A
9:00 PM41 °FPartly sunny.14 mph61%29.89 "HgN/A
8:30 PM43 °FScattered clouds.16 mph57%29.89 "HgN/A
8:00 PM43 °FPassing clouds.15 mph61%29.89 "HgN/A
7:30 PM43 °FSprinkles. Broken clouds.20 mph61%29.89 "HgN/A
7:00 PM45 °FPassing clouds.21 mph57%29.89 "HgN/A
6:30 PM41 °FScattered clouds.20 mph76%29.92 "HgN/A
6:00 PM46 °FScattered clouds.24 mph50%29.89 "HgN/A
5:30 PM46 °FBroken clouds.24 mph57%29.89 "HgN/A
5:00 PM48 °FScattered clouds.26 mph54%29.89 "HgN/A
4:30 PM48 °FBroken clouds.26 mph50%29.89 "HgN/A
4:00 PM48 °FPartly sunny.24 mph54%29.89 "HgN/A
3:30 PM46 °FPartly sunny.28 mph57%29.89 "HgN/A
3:00 PM48 °FPartly sunny.25 mph62%29.89 "HgN/A
2:00 PM46 °FBroken clouds.24 mph76%29.89 "HgN/A
1:30 PM48 °FBroken clouds.23 mph76%29.86 "HgN/A
1:00 PM45 °FSprinkles. Partly sunny.25 mph81%29.89 "HgN/A
Weather by CustomWeather, © 2016

See weather overviewHow to use our weather pages